Regional Weather Roundup
Issued by NWS

Home | Current Version | Previous Version | Text Only | Print | Product List | Glossary On
Versions: 1 2 3 4 5 6 7 8 9 10 11 12 13 14 15 16 17 18 19 20 21 22 23 24 25 26 27 28 29 30 31 32 33 34 35 36 37 38 39 40 41 42 43 44 45 46 47 48 49 50
000
ASUS43 KLMK 192010
RWRKY
KENTUCKY REGIONAL WEATHER ROUNDUP
NATIONAL WEATHER SERVICE LOUISVILLE KY
300 PM EST SUN NOV 19 2017

NOTE "FAIR" INDICATES FEW OR NO CLOUDS BELOW 12,000 FEET
WITH NO SIGNIFICANT WEATHER AND/OR OBSTRUCTIONS TO VISIBILITY.

KYZ001>023-026-027-061>063-070>075-192100-
WESTERN AND SOUTH CENTRAL KENTUCKY

CITY           SKY/WX    TMP DP  RH WIND       PRES   REMARKS
PADUCAH        SUNNY     45  23  42 NW12      30.20R
HENDERSON      SUNNY     41  24  51 NW16      30.18R
OWENSBORO      SUNNY     41  25  53 W15G23    30.17R
HOPKINSVILLE   SUNNY     44  22  41 W8        30.14F
BOWLING GREEN  SUNNY     44  24  45 NW8       30.13F
GLASGOW        SUNNY     44  28  54 W9        30.11S
$$

KYZ024-025-028>034-038-045-046-053-192100-
NORTH CENTRAL KENTUCKY

CITY           SKY/WX    TMP DP  RH WIND       PRES   REMARKS
LOUISVILLE/SDF MOSUNNY   43  27  53 W14       30.10R
LOUISVILLE/LOU MOSUNNY   40  27  59 W16       30.10R WCI  31
FORT KNOX      MOSUNNY   40  26  57 W16       30.09R WCI  32
$$

KYZ035>037-039>044-047>052-055>060-089>105-192100-
NORTHEAST KENTUCKY

CITY           SKY/WX    TMP DP  RH WIND       PRES   REMARKS
LEXINGTON      CLOUDY    38  30  73 W8G20     30.06R WCI  32
COVINGTON      CLOUDY    37  28  70 W17       30.03R WCI  27
FRANKFORT      CLOUDY    38  28  67 W9G20     30.06R WCI  31
$$

KYZ054-064>069-076>088-106>120-192100-
SOUTHEAST KENTUCKY

CITY           SKY/WX    TMP DP  RH WIND       PRES   REMARKS
JACKSON        CLOUDY    39  30  70 W8G17     30.01S WCI  33
LONDON         CLOUDY    40  29  64 W9        30.04F WCI  34
SOMERSET       CLOUDY    39  28  65 W12G17    30.09S WCI  32
MIDDLESBORO    CLOUDY    42  30  61 NW10      30.06S
MONTICELLO     CLOUDY    41  31  67 W12G20    30.09F
$$




USA.gov is the U.S. government's official web portal to all federal, state and local government web resources and services.